Location: Bayou Vista
(29.6905°N, 91.2709°W)
Time: 01:11:36
(UTC+00:00)

Tiangong - Visible Passes

Search period start: 14 July 2024 00:00
Search period end: 24 July 2024 00:00
Orbit: 373 x 378 km, 41.5° (Epoch: 13 July)

Date Brightness Start Highest point End Pass type
(mag) Time Alt. Az. Time Alt. Az. Time Alt. Az.
14 Jul 0.4 09:30:45 13° NW 09:31:45 15° NNW 09:33:37 10° NNE visible
15 Jul 1.2 08:30:58 13° NNE 08:30:58 13° NNE 08:31:29 10° NNE visible
16 Jul 0.8 09:03:09 12° NNW 09:03:27 12° N 09:04:40 10° NNE visible
16 Jul 1.1 10:40:36 10° N 10:41:02 10° N 10:41:29 10° NNE visible
18 Jul 0.9 10:11:12 10° NNW 10:12:28 12° NNE 10:13:45 10° NE visible
19 Jul 0.4 10:44:10 10° NNW 10:46:40 22° NNE 10:49:12 10° ENE visible
20 Jul 0.8 09:41:41 10° NNW 09:43:34 15° NNE 09:45:28 10° NE visible
21 Jul 1.2 08:40:21 11° N 08:40:21 11° N 08:41:22 10° NNE visible
21 Jul -0.4 10:14:39 10° NW 10:17:31 34° NNE 10:20:22 10° E visible
22 Jul 0.4 09:13:07 16° N 09:14:21 20° NNE 09:16:43 10° ENE visible
22 Jul -2.1 10:48:04 10° WNW 10:51:06 57° SW 10:54:08 10° SE visible
23 Jul -1.7 09:46:22 24° NW 09:48:01 58° NNE 09:51:04 10° ESE visible
